Weather reports worldwide

Advertisment
San Luis Obispo, ca, United States of America (2072989): temperature & dewpoint: 30.05.2020 12:00:00 - 05.06.2020 12:00:00 (PDT)San Luis Obispo, ca, United States of America (2072989): wind speed: 30.05.2020 12:00:00 - 05.06.2020 12:00:00 (PDT)San Luis Obispo, ca, United States of America (2072989): wind direction: 30.05.2020 12:00:00 - 05.06.2020 12:00:00 (PDT)San Luis Obispo, ca, United States of America (2072989): reduced air pressure: 30.05.2020 12:00:00 - 05.06.2020 12:00:00 (PDT)San Luis Obispo, ca, United States of America (2072989): visibility: 30.05.2020 12:00:00 - 05.06.2020 12:00:00 (PDT)San Luis Obispo, ca, United States of America (2072989): precipitation: 30.05.2020 12:00:00 - 05.06.2020 12:00:00 (PDT)
Date & Time tt [°C] td [°C] ff [km/h] ff [kn] dd ppp [hPa] vv [km] rr [mm]
05.06.2020 12:00:00 18,9 12,8 11 6 SW 1011,2 16 -
05.06.2020 11:00:00 18,3 13,3 13 7 SW 1010,8 16 -
05.06.2020 10:00:00 17,2 14,4 5 3 - 1010,1 16 -
05.06.2020 09:00:00 16,7 14,4 0 0 N 1010,5 10 -
05.06.2020 08:00:00 15,6 15,0 8 4 WSW 1010,3 4,8 -
05.06.2020 07:00:00 15,6 15,0 8 4 SSW 1009,9 4,0 -
05.06.2020 06:00:00 15,6 14,4 8 4 SW 1009,2 13 -
05.06.2020 05:00:00 16,1 14,4 8 4 SW 1008,9 15 -
05.06.2020 04:00:00 16,1 15,0 9 5 SSW 1008,7 15 0,0
05.06.2020 03:00:00 16,7 15,0 0 0 N 1009,0 13 0,0
05.06.2020 02:00:00 16,7 15,0 8 4 NW 1008,9 16 -
05.06.2020 01:00:00 17,2 14,4 11 6 SW 1009,3 16 -
05.06.2020 00:00:00 17,2 15,0 11 6 WNW 1009,4 16 -
04.06.2020 23:00:00 17,2 15,0 9 5 NW 1009,5 16 -
04.06.2020 22:00:00 17,2 15,0 11 6 WNW 1009,3 16 -
04.06.2020 21:00:00 17,2 15,0 13 7 NW 1009,0 15 -
04.06.2020 20:00:00 17,8 15,0 16 9 WNW 1008,9 11 -
04.06.2020 19:00:00 18,9 15,0 16 9 WNW 1008,5 15 -
04.06.2020 18:00:00 21,1 15,0 15 8 WNW 1008,6 15 -
04.06.2020 17:00:00 22,2 15,0 22 12 WNW 1008,6 16 -
04.06.2020 16:00:00 23,3 15,0 24 13 NW 1008,6 16 -
04.06.2020 15:00:00 23,3 14,4 26 14 NW 1009,0 16 -
04.06.2020 14:00:00 23,3 14,4 29 16 NW 1009,2 16 -
04.06.2020 13:00:00 24,4 13,9 31 17 NW 1009,3 16 -
04.06.2020 12:00:00 23,3 13,9 8 4 - 1009,7 16 -
04.06.2020 11:00:00 23,3 13,9 11 6 WSW 1009,6 16 -
04.06.2020 10:00:00 23,3 13,9 9 5 S 1009,6 16 -
04.06.2020 09:00:00 21,1 13,9 9 5 SSE 1009,7 15 -
04.06.2020 08:00:00 18,3 13,9 5 3 SSE 1009,5 13 -
04.06.2020 07:00:00 15,6 12,8 5 3 ESE 1009,2 11 -
04.06.2020 06:00:00 14,4 12,8 8 4 ESE 1009,0 8 -
04.06.2020 05:00:00 15,0 12,8 9 5 SE 1008,8 11 -
04.06.2020 04:00:00 15,6 13,3 21 11 ESE 1008,9 11 -
04.06.2020 03:00:00 16,1 12,2 0 0 N 1007,9 15 -
04.06.2020 02:00:00 17,2 12,2 0 0 N 1008,3 16 -
04.06.2020 01:00:00 16,1 12,8 0 0 N 1008,8 15 -
04.06.2020 00:00:00 17,2 13,3 0 0 N 1009,2 15 -
03.06.2020 23:00:00 18,9 12,8 9 5 ESE 1009,5 16 -
03.06.2020 22:00:00 18,3 12,8 0 0 N 1009,6 16 -
03.06.2020 21:00:00 19,4 13,3 5 3 SW 1009,2 16 -
03.06.2020 20:00:00 21,7 13,3 8 4 W 1009,4 16 -
03.06.2020 19:00:00 25,6 13,3 15 8 WNW 1009,0 16 -
03.06.2020 18:00:00 28,9 12,2 21 11 WNW 1009,7 16 -
03.06.2020 17:00:00 30,6 11,7 31 17 NW 1009,5 16 -
03.06.2020 16:00:00 31,7 12,2 29 16 NW 1010,2 16 -
03.06.2020 15:00:00 31,7 11,7 35 19 NW 1010,7 16 -
03.06.2020 14:00:00 30,6 12,8 28 15 NW 1011,4 16 -
03.06.2020 13:00:00 29,4 13,9 28 15 NW 1012,0 16 -
03.06.2020 12:00:00 28,9 13,9 18 10 WNW 1012,5 16 -
03.06.2020 11:00:00 28,3 14,4 5 3 E 1012,7 16 -
03.06.2020 10:00:00 25,0 13,9 0 0 N 1013,4 16 -
03.06.2020 09:00:00 20,0 13,9 8 4 WNW 1014,1 16 -
03.06.2020 08:00:00 16,1 13,3 0 0 N 1014,1 15 -
03.06.2020 07:00:00 13,9 12,2 0 0 N 1013,9 13 -
03.06.2020 06:00:00 12,8 11,7 9 5 ESE 1013,6 10 -
03.06.2020 05:00:00 13,9 12,2 5 3 E 1013,4 13 -
03.06.2020 04:00:00 13,9 12,2 9 5 ESE 1013,5 11 -
03.06.2020 03:00:00 13,3 12,2 8 4 NW 1013,5 11 -
03.06.2020 02:00:00 15,6 12,8 11 6 E 1014,1 15 -
03.06.2020 01:00:00 15,6 12,8 11 6 WSW 1013,9 13 -
03.06.2020 00:00:00 16,1 13,3 0 0 N 1015,1 15 -
02.06.2020 23:00:00 17,2 13,3 0 0 N 1015,6 15 -
02.06.2020 22:00:00 17,8 13,3 0 0 N 1015,3 16 -
02.06.2020 21:00:00 18,3 13,3 5 3 SE 1014,8 16 -
02.06.2020 20:00:00 19,4 13,3 13 7 ESE 1014,7 16 -
02.06.2020 19:00:00 22,2 13,9 8 4 W 1014,4 16 -
02.06.2020 18:00:00 25,0 11,1 21 11 WNW 1013,6 16 -
02.06.2020 17:00:00 26,7 11,1 21 11 NW 1013,7 16 -
02.06.2020 16:00:00 25,6 13,3 13 7 W 1013,8 16 -
02.06.2020 15:00:00 28,9 11,7 21 11 NW 1014,1 16 -
02.06.2020 14:00:00 24,4 13,3 13 7 W 1014,6 16 -
02.06.2020 13:00:00 27,8 12,8 18 10 NW 1014,0 16 -
02.06.2020 12:00:00 26,7 12,8 16 9 NNW 1013,8 16 -
02.06.2020 11:00:00 25,6 13,9 5 3 - 1013,7 16 -
02.06.2020 10:00:00 23,3 12,8 9 5 NW 1013,6 16 -
02.06.2020 09:00:00 16,7 12,8 5 3 W 1014,2 16 -
02.06.2020 08:00:00 13,3 12,2 0 0 N 1014,3 6 -
02.06.2020 07:00:00 12,8 12,2 0 0 N 1014,4 1,6 -
02.06.2020 06:00:00 12,8 11,7 8 4 WSW 1013,9 10 -
02.06.2020 05:00:00 12,8 12,2 9 5 NW 1013,7 8 -
02.06.2020 04:00:00 12,8 12,2 9 5 NW 1013,4 8 -
02.06.2020 03:00:00 12,8 11,1 8 4 WNW 1013,9 13 -
02.06.2020 02:00:00 12,8 11,1 0 0 N 1014,1 13 -
02.06.2020 01:00:00 12,8 11,7 8 4 WNW 1014,1 11 -
02.06.2020 00:00:00 12,8 11,7 15 8 NW 1014,6 13 -
01.06.2020 23:00:00 13,3 11,7 13 7 NW 1015,1 13 -
01.06.2020 22:00:00 13,3 11,7 11 6 NW 1015,1 13 -
01.06.2020 21:00:00 13,9 11,7 15 8 NW 1015,0 13 -
01.06.2020 20:00:00 14,4 11,7 24 13 NW 1014,7 15 -
01.06.2020 19:00:00 16,1 11,7 24 13 WNW 1014,4 16 -
01.06.2020 18:00:00 18,3 11,7 24 13 WNW 1014,4 16 -
01.06.2020 17:00:00 18,3 11,7 24 13 WNW 1014,6 16 -
01.06.2020 16:00:00 18,9 11,7 24 13 NW 1014,7 16 -
01.06.2020 15:00:00 20,6 12,2 29 16 NW 1015,2 16 -
01.06.2020 14:00:00 20,6 12,2 29 16 NW 1015,5 16 -
01.06.2020 13:00:00 21,1 12,8 28 15 WNW 1015,6 16 -
01.06.2020 12:00:00 21,1 12,8 24 13 NW 1016,2 16 -
01.06.2020 11:00:00 20,0 12,8 0 0 N 1015,8 16 -
01.06.2020 10:00:00 17,2 12,2 0 0 N 1016,2 16 -
01.06.2020 09:00:00 15,0 11,7 8 4 - 1016,3 16 -
01.06.2020 08:00:00 13,9 11,7 0 0 N 1016,4 16 -
01.06.2020 07:00:00 13,3 11,7 0 0 N 1015,4 16 -
01.06.2020 06:00:00 13,3 12,2 5 3 ESE 1015,5 16 -
01.06.2020 05:00:00 13,9 11,7 9 5 ESE 1015,1 16 -
01.06.2020 04:00:00 13,9 12,2 5 3 NW 1015,0 16 -
01.06.2020 03:00:00 13,9 12,2 9 5 NW 1014,5 16 -
01.06.2020 02:00:00 14,4 12,2 9 5 NNW 1014,4 16 -
01.06.2020 01:00:00 13,9 12,2 0 0 N 1014,5 16 -
01.06.2020 00:00:00 14,4 12,8 0 0 N 1014,1 16 -
31.05.2020 23:00:00 14,4 12,8 15 8 WNW 1014,3 10 -
31.05.2020 22:00:00 14,4 12,2 18 10 WNW 1014,2 16 -
31.05.2020 21:00:00 14,4 11,7 22 12 NW 1013,7 16 -
31.05.2020 20:00:00 15,6 11,7 15 8 NW 1014,0 16 -
31.05.2020 19:00:00 16,7 11,7 29 16 NW 1014,1 16 -
31.05.2020 18:00:00 17,8 12,2 31 17 NW 1013,5 16 -
31.05.2020 17:00:00 17,2 12,8 15 8 SSW 1014,8 16 0,0
31.05.2020 16:00:00 22,2 12,2 31 17 NW 1013,2 16 -
31.05.2020 15:00:00 24,4 12,8 22 12 NW 1013,4 16 -
31.05.2020 14:00:00 22,8 12,8 18 10 WNW 1013,2 10 -
31.05.2020 13:00:00 21,7 12,2 5 3 - 1014,8 16 -
31.05.2020 12:00:00 21,1 12,2 0 0 N 1014,6 16 -
31.05.2020 11:00:00 19,4 11,7 13 7 W 1014,8 16 -
31.05.2020 10:00:00 18,3 11,7 8 4 NE 1015,0 16 -
31.05.2020 09:00:00 16,1 11,7 8 4 NE 1015,0 16 -
31.05.2020 08:00:00 14,4 11,7 5 3 ENE 1014,6 16 -
31.05.2020 07:00:00 12,2 11,7 0 0 N 1014,5 16 -
31.05.2020 06:00:00 11,1 11,1 0 0 N 1014,5 3,2 -
31.05.2020 05:00:00 11,1 11,1 0 0 N 1014,0 3,2 -
31.05.2020 04:00:00 10,0 9,4 5 3 E 1013,8 0,4 -
31.05.2020 03:00:00 11,1 10,0 5 3 SSE 1013,9 16 -
31.05.2020 02:00:00 11,7 10,6 5 3 - 1014,4 10 -
31.05.2020 01:00:00 12,2 11,1 8 4 ESE 1014,8 16 -
31.05.2020 00:00:00 12,8 11,7 0 0 N 1014,7 16 -
30.05.2020 23:00:00 14,4 12,8 0 0 N 1015,0 16 -
30.05.2020 22:00:00 15,6 12,8 8 4 WNW 1015,3 16 -
30.05.2020 21:00:00 15,6 13,3 0 0 N 1015,1 16 -
30.05.2020 20:00:00 16,1 12,8 5 3 SSE 1014,8 16 -
30.05.2020 19:00:00 17,8 12,8 11 6 S 1014,4 16 -
30.05.2020 18:00:00 17,2 12,8 11 6 SW 1014,8 16 -
30.05.2020 17:00:00 17,2 12,8 15 8 SSW 1014,8 16 0,0
30.05.2020 16:00:00 18,3 13,3 15 8 SW 1014,8 16 -
30.05.2020 15:00:00 18,9 13,3 18 10 SSW 1015,2 16 -
30.05.2020 14:00:00 18,9 13,3 13 7 SSW 1015,4 16 -
30.05.2020 13:00:00 18,9 13,3 16 9 S 1015,3 16 0,0
30.05.2020 12:00:00 17,2 15,6 22 12 S 1015,0 8 0,0

tt = temperature
td = dewpoint
ff = wind speed
dd = wind direction
ppp = reduced air pressure
vv = visibility
rr = precipitation

Next stations